Theta_e
312 310 311 314 317 318 319 320 322 320 318 317 318 318 317 316 314 313 310 308 307 304 300 297 296 295 294 294 293 293 292 290 289 288 288 287 287 286 286 285 285 285 284 282
311 311 312 314 317 316 315 315 316 317 317 316 315 315 316 315 315 312 310 308 306 304 299 296 295 294 294 293 292 291 290 289 288 287 286 285 285 285 284 283 282 282 282 281
312 310 312 314 314 313 314 312 311 311 312 312 312 312 312 315 315 312 309 307 305 302 298 296 295 294 293 292 291 289 288 287 286 285 284 284 284 283 282 282 281 280 280 280
313 312 314 312 311 310 311 310 310 310 310 310 311 313 315 314 314 312 309 306 303 299 296 294 293 293 292 291 289 288 286 285 285 284 284 283 282 282 282 281 280 280 279 278
314 315 312 309 308 310 314 312 312 311 312 310 310 311 314 314 314 311 306 302 298 296 293 292 292 292 291 290 288 286 284 284 283 282 282 282 281 281 281 282 281 280 279 279
313 313 313 311 308 308 310 312 310 311 311 311 310 315 316 308 305 301 297 296 294 293 292 290 290 290 290 289 287 286 284 283 282 281 281 281 281 281 281 281 281 281 279 278
310 310 309 308 306 307 309 310 311 311 313 313 315 311 304 299 297 295 295 293 291 290 289 289 289 289 288 286 284 284 284 283 282 282 282 282 281 281 281 282 282 282 281 278
309 309 310 308 309 309 312 312 310 310 312 307 302 298 295 294 294 293 292 291 289 289 288 288 288 287 285 285 285 283 282 282 282 282 282 282 282 282 282 282 281 281 280 278
310 310 311 309 309 308 310 310 309 309 309 304 297 295 294 293 292 291 290 289 289 288 288 288 288 286 285 284 284 282 282 281 281 282 282 281 281 281 281 281 281 280 278 277
308 308 307 308 309 309 308 307 307 307 305 299 296 294 293 292 291 290 289 289 289 289 289 289 288 287 285 284 284 283 283 282 282 282 281 281 279 277 277 277 278 278 277 275
309 309 309 308 308 309 307 305 305 306 301 296 294 293 292 291 290 289 289 289 290 290 290 289 288 287 286 286 285 285 283 282 281 280 278 277 278 276 274 274 275 274 275 274
309 308 309 310 309 306 308 304 304 303 298 296 294 292 291 290 290 289 290 290 290 290 289 288 287 287 286 285 285 284 283 282 282 281 280 278 276 275 275 274 274 274 273 273
310 308 307 306 307 307 306 304 303 302 298 295 293 292 290 290 289 289 290 290 290 289 288 287 286 284 285 284 284 283 283 282 281 281 280 280 280 277 275 274 274 274 274 273
305 305 304 303 304 303 303 302 301 300 297 294 293 291 289 289 289 289 289 289 287 284 283 283 283 282 282 283 283 282 281 281 281 280 280 279 279 279 278 278 275 274 274 273
304 303 303 303 301 301 301 301 300 297 295 294 292 290 289 288 288 288 287 286 284 283 281 281 281 280 280 280 280 280 280 280 280 279 279 279 279 278 278 278 277 277 274 272
303 302 301 301 299 298 298 298 298 295 294 293 291 290 289 288 288 287 286 284 284 282 280 279 278 277 278 279 279 279 279 279 279 278 278 278 278 277 277 276 276 275 272 270
302 301 300 299 298 297 296 296 296 294 293 292 291 290 289 289 287 285 284 283 282 280 278 278 277 277 278 278 278 278 277 278 278 278 277 277 276 275 275 275 274 274 271 270
300 300 299 298 297 296 295 295 294 293 292 291 290 289 289 287 285 284 283 281 279 278 277 276 276 276 278 279 280 278 277 277 277 276 275 275 274 274 274 273 273 272 272 271
298 298 298 297 296 295 294 293 292 291 290 289 288 287 286 285 283 281 280 279 279 278 276 275 275 277 278 278 278 278 277 276 275 275 273 273 273 272 272 272 272 272 271 270
296 296 295 294 293 292 291 290 288 286 285 285 284 284 283 282 281 280 279 279 279 278 276 275 276 277 277 277 277 277 276 276 275 274 273 273 273 272 270 270 270 271 270 269
293 292 291 291 290 290 289 287 285 284 283 283 283 282 282 280 279 279 279 280 278 278 276 276 277 276 275 276 276 276 276 274 273 272 272 272 271 271 271 270 270 269 269 268
290 290 290 289 289 288 287 286 285 283 282 282 282 280 279 279 279 278 280 279 277 276 276 277 277 276 275 275 275 275 275 274 273 272 272 272 272 271 270 269 269 268 267 267
289 288 288 288 288 287 286 285 284 283 283 282 280 278 279 278 279 280 281 278 277 277 277 277 277 275 274 275 274 274 273 273 272 272 271 270 270 269 269 268 267 267 266 265
288 288 287 287 286 286 286 285 284 283 282 280 279 278 278 278 279 280 279 277 277 276 277 276 276 274 274 274 273 272 272 272 271 270 270 269 268 267 267 266 265 265 264 264
288 287 287 286 286 286 285 284 284 283 281 281 279 279 279 279 279 279 277 277 276 276 276 275 274 273 274 273 273 272 271 271 270 270 268 268 267 266 266 265 264 264 263 262
288 288 287 288 288 287 285 284 284 283 282 281 280 280 279 279 280 278 277 276 276 275 275 274 273 273 273 273 272 271 270 270 269 269 268 267 266 266 265 264 263 262 262 262
291 290 289 289 289 287 286 286 285 284 283 281 281 280 280 280 280 278 277 276 277 275 273 272 272 273 273 272 270 270 269 268 267 266 266 266 265 265 264 263 262 262 261 261
Wind_Speed
13 14 11 6 9 12 15 15 14 19 17 18 15 11 12 14 15 18 16 16 13 11 13 14 12 10 9 9 8 7 8 8 8 9 10 11 12 13 14 16 18 19 20 23
14 14 14 11 11 22 21 20 16 21 19 14 14 11 16 17 15 17 16 15 14 12 17 15 13 12 10 10 9 9 9 9 9 10 10 12 12 14 15 17 18 19 21 21
16 16 15 15 26 23 25 22 16 19 16 15 16 17 14 15 12 17 16 16 14 13 16 16 13 12 11 11 11 11 11 10 10 10 11 12 12 13 15 17 18 21 21 20
9 12 20 16 16 20 21 19 19 18 18 17 12 9 8 8 19 18 17 17 15 18 19 17 13 13 12 12 13 12 11 11 10 10 12 12 12 14 14 16 18 20 21 22
5 6 9 13 13 9 8 7 15 13 14 12 11 5 5 9 14 14 15 13 21 25 23 19 15 14 13 13 14 12 12 12 11 11 13 13 14 13 13 14 15 17 19 20
4 3 4 9 13 12 9 6 13 14 14 14 12 7 3 12 17 18 24 26 27 27 24 21 16 9 13 14 15 14 13 13 12 12 14 13 12 13 13 14 13 13 18 21
13 10 8 16 17 16 14 9 7 6 8 9 3 5 12 16 15 21 25 27 29 26 22 22 19 15 15 16 15 13 12 13 13 12 12 12 13 12 13 12 13 13 15 20
9 10 15 6 9 13 5 3 4 2 6 11 13 11 12 14 14 15 21 24 24 24 22 18 17 18 19 18 15 15 14 14 13 12 11 11 11 12 13 11 13 14 15 17
5 3 2 5 5 7 4 3 1 1 10 13 13 12 12 13 13 15 21 21 21 21 21 19 19 18 18 17 15 17 15 14 12 13 13 12 13 14 14 14 14 14 16 16
12 13 13 10 11 5 4 3 0 2 11 13 13 13 13 12 12 13 19 20 21 22 21 21 21 20 18 18 17 15 14 14 13 12 12 14 16 15 16 16 14 15 14 16
7 10 18 12 6 7 9 4 4 6 13 14 14 13 14 13 13 17 18 20 20 20 20 21 21 20 20 20 18 16 16 15 15 15 13 13 16 14 16 16 13 12 14 13
10 6 6 7 5 19 5 6 7 11 12 12 13 13 13 12 18 19 18 19 18 16 18 18 18 18 17 17 16 16 15 14 13 12 17 14 16 14 11 12 12 13 13 11
4 5 2 1 8 11 7 7 8 11 12 13 15 16 17 14 18 19 17 17 17 18 19 18 19 16 16 15 16 16 15 13 12 12 10 9 11 13 13 7 7 8 8 10
4 2 3 3 2 2 4 7 9 13 15 16 17 19 18 17 19 18 16 17 20 23 23 24 22 18 14 14 18 20 18 15 14 13 11 10 9 6 6 6 10 9 9 11
5 4 6 1 4 4 5 8 10 10 11 12 18 19 19 18 17 17 19 21 20 20 20 20 20 15 13 15 17 17 16 15 14 12 11 9 7 6 5 5 6 7 8 10
5 6 4 5 6 6 7 8 10 10 10 11 15 18 20 20 19 19 20 21 20 18 18 19 18 17 19 18 18 17 16 14 13 11 9 8 7 5 6 5 6 9 9 12
6 5 5 6 6 7 6 7 9 10 10 12 16 19 20 20 21 20 19 19 19 21 21 21 22 22 21 19 15 15 14 10 12 10 9 8 7 6 6 6 6 9 9 11
3 2 3 7 7 6 6 4 10 13 10 16 18 19 18 20 17 20 20 25 26 22 19 21 23 23 19 15 15 15 13 12 11 10 9 8 7 6 6 6 6 6 6 8
3 6 5 7 7 6 6 7 11 14 15 18 17 15 18 19 22 21 23 23 22 20 19 22 23 20 18 13 13 13 13 12 11 10 9 10 8 7 6 5 5 5 5 6
7 9 12 12 13 14 12 17 19 18 18 22 22 19 18 20 21 21 20 17 17 16 23 24 20 17 15 16 14 13 13 12 11 10 9 8 8 7 5 5 5 4 4 4
10 10 10 13 13 16 16 18 19 16 17 21 21 18 19 19 21 22 18 14 15 20 23 23 19 17 15 15 12 13 12 12 10 8 9 7 8 6 5 4 4 3 3 3
8 7 9 12 13 13 14 15 16 17 17 16 18 21 21 19 19 18 15 18 20 23 24 18 17 17 16 15 12 12 12 11 10 9 8 7 7 6 6 5 3 3 2 1
10 11 11 11 10 11 13 13 14 15 16 17 20 20 19 19 20 17 13 22 23 21 18 16 19 18 18 13 14 13 12 11 10 9 8 7 6 6 5 5 4 2 1 2
11 11 11 13 15 13 9 12 12 13 15 18 19 23 22 19 15 13 17 22 23 22 17 20 20 19 15 14 13 12 11 10 9 9 9 8 7 7 5 3 4 3 2 2
11 11 12 12 10 9 12 13 13 14 15 14 17 19 19 18 19 18 23 22 24 18 21 20 19 21 14 13 12 11 11 9 9 9 6 8 7 7 5 5 5 5 6 3
12 10 10 11 10 13 14 14 12 14 15 15 16 17 19 20 18 22 23 24 23 20 21 22 23 19 14 13 13 12 11 12 12 10 10 9 8 7 8 8 7 3 3 6
9 12 11 7 10 13 15 14 14 15 16 17 16 18 19 19 20 22 23 25 21 21 18 20 22 16 15 15 12 12 11 9 9 10 11 8 8 6 8 8 5 7 9 8
Wind_Direction
249 269 273 242 251 266 266 275 241 265 264 264 282 181 203 204 224 165 179 185 182 172 146 145 155 156 147 145 138 122 106 94 77 70 61 58 52 50 48 46 40 40 41 37
281 279 270 249 247 257 252 248 254 269 266 266 255 264 211 219 170 168 179 186 176 172 151 159 166 162 159 148 127 114 104 94 83 73 66 61 57 56 53 52 48 43 39 43
262 264 279 267 248 248 246 245 253 262 267 269 264 260 260 153 177 177 176 175 174 155 157 151 164 153 160 140 130 119 111 100 90 82 74 66 63 62 60 57 55 51 43 40
260 261 244 252 253 245 257 267 266 265 263 266 295 318 55 165 163 181 175 163 162 140 134 142 153 156 158 140 124 117 104 95 90 87 82 77 74 69 68 63 58 53 47 43
268 236 293 288 263 257 257 277 291 318 308 293 306 294 78 24 164 154 148 136 127 129 130 140 155 165 150 136 125 116 107 99 95 93 91 87 81 77 74 70 65 60 53 45
248 237 243 250 258 278 337 256 264 251 262 267 275 253 102 86 101 104 113 121 123 129 135 142 151 164 144 140 119 117 120 117 107 100 98 92 88 82 77 72 69 69 62 52
237 249 257 265 277 278 275 262 16 355 343 336 68 62 96 96 94 108 120 122 125 128 129 142 154 153 138 122 126 128 118 112 113 109 104 94 89 86 79 75 70 68 71 55
232 240 254 350 321 264 336 43 44 42 68 92 103 97 101 106 110 117 121 124 128 128 135 142 146 140 131 137 141 133 124 119 115 111 108 100 94 83 72 76 69 63 61 57
205 247 206 264 241 261 264 306 121 21 105 122 119 122 125 127 125 127 129 130 133 135 148 160 165 163 155 152 139 134 130 127 122 117 109 98 81 75 64 63 59 61 56 48
254 258 265 264 222 206 195 254 289 166 135 130 134 138 133 132 133 133 137 142 148 156 164 166 165 166 157 156 152 147 144 143 138 120 105 96 90 80 66 55 56 45 60 46
301 292 284 262 271 246 187 174 181 152 125 140 140 144 143 142 142 142 147 150 161 169 165 163 161 151 158 162 161 152 145 142 139 129 115 108 94 92 85 81 80 76 57 63
264 279 287 321 347 315 195 161 173 139 131 146 148 148 147 146 147 150 155 159 167 164 149 148 148 148 155 155 152 151 149 149 145 139 147 132 123 106 98 98 92 82 71 62
4 37 102 147 232 230 180 175 169 148 149 154 154 154 149 146 152 156 156 162 162 149 150 148 137 135 146 155 157 157 140 133 125 125 118 108 119 147 145 138 114 96 80 56
308 153 250 230 217 211 159 163 141 133 144 143 154 147 147 148 153 153 154 142 128 124 123 131 130 119 126 134 138 129 128 133 124 120 119 112 108 102 95 146 180 144 83 48
226 212 292 225 155 138 143 137 144 132 135 146 150 149 154 149 154 155 141 137 132 123 126 141 137 131 142 143 138 130 123 119 120 118 120 119 121 109 93 92 88 100 81 26
181 229 168 176 156 145 154 164 148 141 146 142 148 156 154 154 154 149 147 148 147 145 140 142 143 147 139 136 130 128 132 137 137 133 132 118 105 104 96 83 75 75 74 30
170 192 178 171 162 161 170 176 150 148 147 152 155 153 157 154 148 146 147 153 150 142 148 148 150 150 151 142 137 136 135 130 126 123 117 116 115 109 103 92 78 75 85 46
77 110 151 160 155 157 156 123 127 143 150 154 154 156 155 150 144 143 135 129 128 132 143 157 155 150 149 153 150 141 140 140 133 127 126 122 117 112 100 97 86 75 65 47
115 130 132 127 135 136 123 118 122 127 129 134 130 125 130 128 130 127 130 131 138 138 149 160 154 153 146 139 143 143 141 138 135 129 131 125 114 112 103 96 90 81 66 58
80 72 84 81 91 93 92 102 104 105 115 118 119 123 119 126 130 131 137 147 156 157 161 156 151 153 156 152 146 145 144 145 139 135 139 133 129 125 121 111 107 85 74 57
85 85 83 92 92 99 111 119 120 121 127 133 135 135 135 134 138 141 151 156 155 165 159 156 159 155 157 154 143 145 145 145 142 141 143 146 141 139 134 126 115 104 84 60
119 111 113 109 110 112 117 124 127 133 138 143 140 139 138 143 149 160 174 154 158 159 161 164 162 160 159 152 149 147 145 146 146 147 151 153 154 154 146 140 138 122 100 70
127 129 120 116 127 129 130 130 140 147 148 147 146 149 155 160 164 171 155 155 157 162 163 164 167 163 153 150 150 149 150 152 154 156 155 158 159 159 154 164 151 155 175 239
133 134 129 128 128 137 139 138 145 153 152 150 155 159 156 157 170 174 152 155 161 163 172 168 168 166 152 158 156 158 158 160 162 163 172 166 181 180 169 194 171 186 249 302
137 137 139 144 151 153 145 150 143 145 148 156 162 165 166 170 165 166 154 158 164 167 166 171 171 162 161 163 165 165 167 172 174 181 185 178 184 184 186 210 212 209 236 242
148 156 164 176 165 148 150 158 157 159 160 153 163 167 169 168 166 157 157 162 164 166 171 169 171 162 169 170 172 171 175 188 185 176 185 193 193 191 208 208 228 238 244 243
171 155 154 157 154 159 162 179 163 166 168 163 164 170 167 168 161 157 159 164 167 162 173 168 172 167 174 176 177 177 186 211 187 203 196 195 207 202 222 230 221 228 241 258